Flag for Germany

Past Weather in Starnberg, Bavaria, Germany — Yesterday and Last 2 Weeks

Now
61 °F

Overcast.


Feels Like: 61 °F
Forecast: 67 / 54 °F
Wind: 9 mph from West

Location: Oberpfaffenhofen
Current Time: Sep 23, 2020 at 3:30:21 am
Latest Report: Sep 23, 2020 at 2:50 am
Visibility: N/A
Pressure29.83 "Hg(27.82 "Hg at 590m altitude)
Humidity: 83%
Dew Point: 55 °F
Location of StarnbergLocation

Past Weather in Starnberg — Graph

°F

Starnberg Temperature Yesterday

Maximum temperature yesterday: 73 °F (at 1:50 pm)
Minimum temperature yesterday: 48 °F (at 4:20 am)
Average temperature yesterday: 61 °F

High & Low Weather Summary for the Past Weeks

 TemperatureHumidityPressure
High81 °F (Sep 15, 2:50 pm)100% (Sep 8, 2:20 am)30.39 "Hg (Sep 8, 2:20 am)
Low39 °F (Sep 19, 6:50 am)44% (Sep 13, 2:20 pm)29.83 "Hg (Sep 22, 9:20 pm)
Average61 °F81%30.16 "Hg
* Reported Sep 8 2:20 am — Sep 23 2:20 am, Starnberg. Weather by CustomWeather, © 2020

Note: Actual official high and low records may vary slightly from our data, if they occured in-between our weather recording intervals... More about our weather records

Starnberg Weather History for the Previous 24 Hours

Scroll right to see more
 ConditionsComfort  
Time TempWeatherWind HumidityBarometerVisibility
2:20 am
Wed, Sep 23
61 °FMostly cloudy.10 mph88%29.83 "HgN/A
1:50 am61 °FMostly cloudy.8 mph88%29.83 "HgN/A
1:20 am61 °FOvercast.10 mph94%29.83 "HgN/A
12:20 am59 °FOvercast.7 mph94%29.83 "HgN/A
11:50 pm
Tue, Sep 22
59 °FMostly cloudy.5 mph94%29.83 "HgN/A
11:20 pm57 °FPassing clouds.3 mph94%29.83 "HgN/A
10:50 pm59 °FPassing clouds.5 mph94%29.83 "HgN/A
10:20 pm57 °FPassing clouds.3 mph94%29.83 "HgN/A
9:50 pm59 °FOvercast.6 mph94%29.83 "HgN/A
9:20 pm61 °FMostly cloudy.3 mph88%29.83 "HgN/A
8:20 pm63 °FOvercast.3 mph83%29.86 "HgN/A
7:50 pm63 °FClear.6 mph77%29.86 "Hg10 mi
7:20 pm63 °FPassing clouds.7 mph77%29.86 "HgN/A
6:50 pm66 °FPassing clouds.8 mph68%29.86 "HgN/A
6:20 pm68 °FPassing clouds.2 mph73%29.86 "HgN/A
5:50 pm70 °FPassing clouds.5 mph64%29.86 "HgN/A
5:20 pm70 °FScattered clouds.6 mph64%29.86 "HgN/A
4:50 pm70 °FScattered clouds.5 mph60%29.86 "HgN/A
4:20 pm73 °FPassing clouds.6 mph57%29.89 "HgN/A
3:50 pm73 °FPassing clouds.5 mph57%29.89 "HgN/A
3:20 pm73 °FPassing clouds.7 mph57%29.89 "HgN/A
2:50 pm73 °FPassing clouds.5 mph57%29.92 "HgN/A
2:20 pm72 °FPassing clouds.6 mph57%29.92 "HgN/A
1:50 pm73 °FPassing clouds.2 mph61%29.92 "HgN/A
1:20 pm72 °FPassing clouds.5 mph61%29.95 "HgN/A
12:50 pm72 °FPassing clouds.3 mph61%29.95 "HgN/A
12:20 pm70 °FPassing clouds.5 mph64%29.95 "HgN/A
11:50 am70 °FPassing clouds.5 mph69%29.95 "HgN/A
11:20 am68 °FPassing clouds.3 mph73%29.98 "HgN/A
10:50 am66 °FPassing clouds.5 mph73%29.98 "HgN/A
10:20 am66 °FSunny.7 mph73%29.98 "Hg10 mi
9:20 am61 °FSunny.3 mph88%29.98 "Hg10 mi
8:50 am61 °FSunny.1 mph83%29.98 "Hg10 mi
8:20 am57 °FSunny.No wind94%29.98 "Hg10 mi
7:50 am52 °FSunny.1 mph100%29.98 "Hg10 mi
7:20 am52 °FClear.3 mph94%29.98 "Hg6 mi
6:50 am52 °FClear.3 mph100%29.98 "Hg5 mi
6:20 am50 °FClear.3 mph100%29.98 "Hg4 mi
5:50 am52 °FClear.3 mph94%29.98 "HgN/A
5:20 am50 °FClear.2 mph100%29.98 "HgN/A
4:50 am54 °FClear.5 mph94%29.98 "HgN/A
4:20 am48 °FClear.3 mph100%29.98 "HgN/A
3:50 am50 °FClear.2 mph100%29.98 "HgN/A
3:20 am52 °FClear.2 mph100%29.98 "Hg4 mi
Weather by CustomWeather, © 2020

See weather overview